This demonstration page uses our WeatherBlox Daily Observations layout. Learn more.

Hourly Observations for October 21, 2019

Temp ( °F °C ) Dew Point ( °F °C ) Humidity (%) Winds ( mph kmh ) Pressure ( in mb ) Visibility ( mi km ) Precip ( " mm )
12:15 am 00:15 Mostly Cloudy 42 5.5 33 0.5 71 71 WNW 24 39 29.62 1003 10 16.09344 0 0
12:35 am 00:35 Mostly Cloudy 42 5.5 32 0.2 69 69 WNW 26 43 29.62 1003 10 16.09344 0 0
12:55 am 00:55 Cloudy 42 5.5 33 0.5 71 71 WNW 28 44 29.62 1003 10 16.09344 0 0
1:15 am 01:15 Cloudy 41 5.2 33 0.6 72 72 NW 28 44 29.62 1003 10 16.09344 0 0
1:35 am 01:35 Mostly Cloudy 41 5 32 0.1 71 71 WNW 31 50 29.62 1003 10 16.09344 0 0
1:55 am 01:55 Mostly Cloudy 40 4.4 32 0 73 73 WNW 28 44 29.62 1003 10 16.09344 0 0
2:15 am 02:15 Mostly Cloudy 41 5.1 32 0.2 71 71 NW 28 44 29.62 1003 10 16.09344 0 0
2:35 am 02:35 Cloudy 42 5.6 33 0.3 69 69 NW 31 50 29.62 1003 10 16.09344 0 0
2:55 am 02:55 Cloudy 42 5.6 33 0.5 70 70 NW 39 63 29.62 1003 10 16.09344 0 0
3:15 am 03:15 Cloudy 41 5.2 33 0.8 74 74 NW 35 56 29.62 1003 10 16.09344 0 0
3:35 am 03:35 Cloudy 41 5.1 34 1 75 75 NW 33 54 29.62 1003 10 16.09344 0 0
3:55 am 03:55 Cloudy 42 5.5 34 1 73 73 NW 30 48 29.62 1003 10 16.09344 0 0
4:15 am 04:15 Cloudy 42 5.5 34 1 73 73 NW 36 57 29.62 1003 10 16.09344 0 0
4:35 am 04:35 Cloudy 42 5.6 34 0.9 72 72 NW 39 63 29.62 1003 10 16.09344 0 0
4:55 am 04:55 Cloudy 43 5.9 33 0.6 69 69 NW 29 46 29.59 1002 10 16.09344 0 0
5:15 am 05:15 Cloudy 44 6.5 33 0.5 66 66 NW 31 50 29.62 1003 10 16.09344 0 0
5:35 am 05:35 Cloudy 44 6.8 33 0.5 65 65 NW 31 50 29.62 1003 10 16.09344 0 0
5:55 am 05:55 Cloudy 45 7 33 0.4 63 63 NW 38 61 29.62 1003 10 16.09344 0 0
6:15 am 06:15 Cloudy 45 7 33 0.3 63 63 NW 28 44 29.62 1003 10 16.09344 0 0
6:35 am 06:35 Cloudy 45 7 33 0.5 64 64 WNW 32 52 29.62 1003 10 16.09344 0 0
6:55 am 06:55 Cloudy 45 7 33 0.4 63 63 NW 30 48 29.62 1003 10 16.09344 0 0
7:15 am 07:15 Cloudy 45 7 33 0.5 64 64 WNW 25 41 29.62 1003 10 16.09344 0 0
7:35 am 07:35 Cloudy 45 7 33 0.5 64 64 NW 33 54 29.62 1003 10 16.09344 0 0
7:55 am 07:55 Cloudy 45 7 33 0.5 64 64 NW 33 54 29.62 1003 10 16.09344 0 0
8:15 am 08:15 Cloudy 45 7 33 0.5 64 64 NW 23 37 29.62 1003 10 16.09344 0 0
8:35 am 08:35 Cloudy 45 7 32 0.1 62 62 NW 39 63 29.62 1003 7 11.265408 0 0
8:55 am 08:55 Cloudy 44 6.6 32 0.1 64 64 NW 40 65 29.62 1003 7 11.265408 0 0
9:15 am 09:15 Cloudy 44 6.6 32 0.2 64 64 NW 33 54 29.65 1004 10 16.09344 0 0
9:35 am 09:35 Cloudy 44 6.5 32 0.2 64 64 NNW 36 57 29.65 1004 7 11.265408 0 0
9:55 am 09:55 Cloudy 44 6.5 32 0.2 64 64 NNW 33 54 29.65 1004 7 11.265408 0 0
10:15 am 10:15 Cloudy 44 6.5 32 0.1 64 64 NW 36 57 29.71 1006 10 16.09344 0 0
10:35 am 10:35 Cloudy 44 6.5 32 0.1 64 64 NW 33 54 29.71 1006 10 16.09344 0 0
10:55 am 10:55 Cloudy 44 6.6 32 0.1 64 64 NW 33 54 29.71 1006 10 16.09344 0 0
11:15 am 11:15 Cloudy 44 6.6 32 0.1 64 64 NW 31 50 29.74 1007 10 16.09344 0 0
11:35 am 11:35 Cloudy 44 6.6 32 0.1 64 64 NW 29 46 29.74 1007 10 16.09344 0 0
11:55 am 11:55 Cloudy 45 7.1 32 0.2 62 62 NW 31 50 29.71 1006 10 16.09344 0 0
12:15 pm 12:15 Cloudy 45 7.3 32 0.1 61 61 NW 35 56 29.71 1006 10 16.09344 0 0
12:35 pm 12:35 Cloudy 46 7.5 32 0.2 60 60 NW 32 52 29.71 1006 10 16.09344 0 0
12:55 pm 12:55 Cloudy 46 7.5 33 0.3 61 61 NNW 38 61 29.71 1006 10 16.09344 0 0
1:15 pm 13:15 Cloudy 46 7.6 33 0.5 61 61 NW 36 57 29.71 1006 7 11.265408 0 0
1:35 pm 13:35 Cloudy 47 8.2 34 1 61 61 NW 37 59 29.71 1006 10 16.09344 0 0
1:55 pm 13:55 Cloudy 47 8.3 35 1.6 63 63 NW 39 63 29.74 1007 7 11.265408 0 0
2:15 pm 14:15 Cloudy 47 8.4 35 1.7 63 63 NW 38 61 29.74 1007 10 16.09344 0 0
2:35 pm 14:35 Cloudy 47 8.5 35 1.7 63 63 NW 36 57 29.74 1007 10 16.09344 0 0
2:55 pm 14:55 Cloudy 47 8.2 35 1.4 63 63 NW 40 65 29.74 1007 7 11.265408 0 0
3:15 pm 15:15 Cloudy 48 8.8 34 1.3 60 60 NW 40 65 29.77 1008 10 16.09344 0 0
3:35 pm 15:35 Cloudy 48 8.7 33 0.7 58 58 NNW 35 56 29.77 1008 10 16.09344 0 0
3:55 pm 15:55 Cloudy 49 9.6 32 0 52 52 NW 40 65 29.77 1008 10 16.09344 0 0
4:15 pm 16:15 Cloudy 50 10.2 30 -1.1 46 46 NNW 40 65 29.8 1009 7 11.265408 0 0
4:35 pm 16:35 Mostly Cloudy 52 11.1 27 -3 37 37 NW 38 61 29.77 1008 7 11.265408 0 0
4:55 pm 16:55 Mostly Cloudy with Haze 51 10.5 24 -4.7 34 34 NNW 38 61 29.83 1010 4 6.437376 0 0
5:15 pm 17:15 Partly Cloudy 50 10 22 -5.3 34 34 NW 40 65 29.83 1010 7 11.265408 0 0
5:35 pm 17:35 Sunny 49 9.6 23 -5 36 36 NNW 29 46 29.83 1010 10 16.09344 0 0
5:55 pm 17:55 Sunny 50 10 22 -5.4 34 34 NNW 29 46 29.85 1011 10 16.09344 0 0
6:15 pm 18:15 Sunny 50 9.8 23 -5 35 35 NNW 23 37 29.85 1011 10 16.09344 0 0
6:35 pm 18:35 Sunny 49 9.6 24 -4.7 36 36 NW 29 46 29.88 1012 10 16.09344 0 0
6:55 pm 18:55 Clear 48 9 24 -4.6 38 38 NW 30 48 29.88 1012 10 16.09344 0 0
7:15 pm 19:15 Clear 47 8.6 24 -4.7 39 39 NW 17 28 29.94 1014 10 16.09344 0 0
7:35 pm 19:35 Clear 47 8.1 23 -4.9 40 40 NW 21 33 29.94 1014 10 16.09344 0 0
7:55 pm 19:55 Clear 46 7.7 23 -5 41 41 NW 20 31 29.94 1014 10 16.09344 0 0
8:15 pm 20:15 Clear 44 6.6 23 -4.8 44 44 NW 14 22 29.97 1015 10 16.09344 0 0
8:35 pm 20:35 Clear 44 6.7 24 -4.7 44 44 NW 17 28 29.97 1015 10 16.09344 0 0
8:55 pm 20:55 Clear 43 6.2 24 -4.7 46 46 WNW 13 20 29.97 1015 10 16.09344 0 0
9:15 pm 21:15 Clear 42 5.3 24 -4.7 49 49 WNW 10 17 30 1016 10 16.09344 0 0
9:35 pm 21:35 Clear 39 4.1 24 -4.4 54 54 WNW 10 17 30 1016 10 16.09344 0 0
9:55 pm 21:55 Clear 38 3.6 24 -4.2 57 57 WNW 9 15 30 1016 10 16.09344 0 0
10:15 pm 22:15 Clear 37 2.9 24 -4.3 60 60 WNW 12 19 30.06 1018 10 16.09344 0 0
10:35 pm 22:35 Clear 37 2.7 25 -4 62 62 WNW 10 17 30.06 1018 10 16.09344 0 0
10:55 pm 22:55 Clear 37 2.5 25 -3.7 64 64 WNW 12 19 30.06 1018 10 16.09344 0 0
11:15 pm 23:15 Clear 36 2.4 25 -3.8 64 64 WNW 10 17 30.06 1018 10 16.09344 0 0
11:35 pm 23:35 Clear 37 3 25 -4 60 60 WNW 13 20 30.06 1018 10 16.09344 0 0
11:55 pm 23:55 Clear 37 2.8 25 -4 61 61 WNW 12 19 30.06 1018 10 16.09344 0 0

Powered by AerisWeather